Weather History for Eastover, SC

Change the Weather History Date:

Thursday, February 21, 2013

  Actual Average Record
Temperature  
Mean Temperature 46 °F -  
Max Temperature 61 °F 58 °F 78 °F (1997)
Min Temperature 30 °F 38 °F 20 °F (2009)
Degree Days  
Heating Degree Days 20    
Moisture  
Dew Point 23 °F    
Average Humidity 44    
Maximum Humidity 90    
Minimum Humidity 21    
Precipitation  
Precipitation 0.00 in - - ()
Sea Level Pressure  
Sea Level Pressure 30.15 in    
Wind  
Wind Speed 4 mph (ENE)    
Max Wind Speed 9 mph    
Max Gust Speed -    
Visibility 9 miles    
Events      
Averages and records for this station are not official NWS values.
T = Trace of Precipitation, MM = Missing Value Source: NWS Daily Summary

Daily Weather History Graph

Daily Weather History Graph

Search for Another Location

Airport:

Trip Planner

Search our weather history database for the weather conditions in past years. The results will help you decide how hot, cold, wet, or windy it might be!

Date:

Astronomy

Feb. 21, 2013 Rise Set
Actual Time 7:01 AM EST 6:12 PM EST
Civil Twilight 6:35 AM EST 6:38 PM EST
Nautical Twilight 6:06 AM EST 7:07 PM EST
Astronomical Twilight 5:37 AM EST 7:36 PM EST
Moon 2:33 PM EST (2/21) 3:57 AM EST (2/21)
Length of Visible Light 12h 02m
Length of Day
11h 11m
Waxing Gibbous, 83% of the Moon is Illuminated
Feb 21
Waxing Gibbous
Feb 25
Full
Mar 4
Last Quarter
Mar 11
New
Mar 19
First Quarter

Hourly Weather History & Observations

Time (EST) Temp. Windchill Dew Point Humidity Pressure Visibility Wind Dir Wind Speed Gust Speed Precip Events Conditions
12:58 AM 34.0 °F - 30.4 °F 87% 30.11 in 10.0 mi Calm Calm - N/A   Clear
1:58 AM 31.5 °F - 28.2 °F 88% 30.11 in 10.0 mi NNE 1.2 mph - N/A   Clear
2:58 AM 30.6 °F - 27.9 °F 90% 30.12 in 10.0 mi North 2.3 mph - N/A   Clear
3:58 AM 39.0 °F 32.8 °F 21.9 °F 50% 30.12 in 10.0 mi NE 9.2 mph - N/A   Clear
4:58 AM 37.2 °F 30.6 °F 20.7 °F 51% 30.14 in 10.0 mi NE 9.2 mph - N/A   Clear
5:58 AM 36.7 °F 31.2 °F 19.6 °F 50% 30.17 in 10.0 mi NE 6.9 mph - N/A   Partly Cloudy
6:58 AM 35.1 °F 31.0 °F 18.9 °F 52% 30.18 in 10.0 mi ENE 4.6 mph - N/A   Partly Cloudy
7:58 AM 37.4 °F 32.8 °F 18.3 °F 46% 30.20 in 10.0 mi ENE 5.8 mph - N/A   Partly Cloudy
8:58 AM 41.0 °F 35.8 °F 17.4 °F 39% 30.23 in 10.0 mi ENE 8.1 mph - N/A   Partly Cloudy
9:58 AM 45.0 °F 41.2 °F 18.5 °F 35% 30.23 in 10.0 mi NE 6.9 mph - N/A   Partly Cloudy
10:58 AM 48.2 °F - 17.6 °F 30% 30.23 in 10.0 mi East 5.8 mph - N/A   Partly Cloudy
11:58 AM 52.0 °F - 19.2 °F 28% 30.21 in 10.0 mi Variable 4.6 mph - N/A   Partly Cloudy
12:58 PM 55.4 °F - 21.4 °F 27% 30.18 in 10.0 mi Variable 1.2 mph - N/A   Partly Cloudy
1:58 PM 59.0 °F - 20.5 °F 23% 30.13 in 10.0 mi Variable 3.5 mph - N/A   Partly Cloudy
2:58 PM 60.4 °F - 21.2 °F 22% 30.10 in 10.0 mi Variable 2.3 mph - N/A   Mostly Cloudy
3:58 PM 60.8 °F - 20.8 °F 21% 30.12 in 7.0 mi Variable 3.5 mph - N/A   Mostly Cloudy
4:58 PM 61.0 °F - 21.9 °F 22% 30.11 in 7.0 mi NE 3.5 mph - N/A   Mostly Cloudy
5:58 PM 57.2 °F - 24.4 °F 28% 30.12 in 7.0 mi East 2.3 mph - N/A   Scattered Clouds
6:58 PM 47.8 °F - 31.5 °F 53% 30.12 in 10.0 mi East 5.8 mph - N/A   Scattered Clouds
7:58 PM 49.6 °F - 27.5 °F 42% 30.13 in 7.0 mi NE 5.8 mph - N/A   Scattered Clouds
8:58 PM 50.0 °F - 27.9 °F 42% 30.13 in 10.0 mi ENE 5.8 mph - N/A   Mostly Cloudy
9:58 PM 51.4 °F - 27.1 °F 39% 30.17 in 10.0 mi East 5.8 mph - N/A   Overcast
10:58 PM 50.0 °F - 27.7 °F 42% 30.18 in 7.0 mi East 5.8 mph - N/A   Overcast